| time (UTC) | temp C | wind direction | speed KPH | gust KPH | rain 1hr cm | rain 24hr cm | rain mn cm | humidity % | barometer mb |
| 20260505035017 | 15 | 135 | 3.2 | 4.8 | 0.00 | 0.20 | 0.20 | 43 | 1007.2 |
| 20260505034017 | 15 | 113 | 9.7 | 19.3 | 0.00 | 0.20 | 0.20 | 45 | 1006.5 |
| 20260505033017 | 15 | 113 | 12.9 | 17.7 | 0.00 | 0.20 | 0.20 | 43 | 1006.6 |
| 20260505032037 | 15 | 113 | 9.7 | 19.3 | 0.00 | 0.20 | 0.20 | 44 | 1006.2 |
| 20260505031017 | 15 | 113 | 6.4 | 16.1 | 0.00 | 0.20 | 0.20 | 44 | 1006.5 |
| 20260505030017 | 16 | 113 | 4.8 | 14.5 | 0.00 | 0.20 | 0.20 | 42 | 1006.4 |
| 20260505025017 | 16 | 113 | 4.8 | 9.7 | 0.00 | 0.20 | 0.20 | 41 | 1006.1 |
| 20260505024017 | 16 | 113 | 4.8 | 11.3 | 0.00 | 0.20 | 0.20 | 41 | 1005.9 |
| 20260505023017 | 17 | 113 | 3.2 | 9.7 | 0.00 | 0.20 | 0.20 | 39 | 1005.9 |
| 20260505022018 | 17 | 90 | 8.0 | 12.9 | 0.00 | 0.20 | 0.20 | 40 | 1005.9 |
| 20260505021017 | 17 | 90 | 4.8 | 8.0 | 0.00 | 0.20 | 0.20 | 39 | 1005.7 |
| 20260505020017 | 17 | 113 | 8.0 | 14.5 | 0.00 | 0.20 | 0.20 | 40 | 1005.8 |
| 20260505015037 | 17 | 113 | 1.6 | 6.4 | 0.00 | 0.20 | 0.20 | 38 | 1006.0 |
| 20260505014017 | 17 | 0.0 | 1.6 | 0.00 | 0.20 | 0.20 | 37 | 1006.0 | |
| 20260505013017 | 17 | 113 | 3.2 | 8.0 | 0.00 | 0.20 | 0.20 | 35 | 1006.0 |
| 20260505012037 | 18 | 113 | 3.2 | 8.0 | 0.00 | 0.20 | 0.20 | 35 | 1005.6 |
| 20260505011017 | 17 | 90 | 6.4 | 12.9 | 0.00 | 0.20 | 0.20 | 35 | 1005.6 |
| 20260505010017 | 18 | 45 | 9.7 | 16.1 | 0.00 | 0.20 | 0.20 | 34 | 1005.9 |
| 20260505005017 | 17 | 135 | 6.4 | 14.5 | 0.00 | 0.20 | 0.20 | 34 | 1005.6 |
| 20260505004017 | 17 | 45 | 12.9 | 19.3 | 0.00 | 0.20 | 0.20 | 33 | 1005.6 |
| 20260505003017 | 17 | 45 | 11.3 | 19.3 | 0.00 | 0.20 | 0.20 | 36 | 1005.9 |
| 20260505002017 | 17 | 45 | 12.9 | 29.0 | 0.00 | 0.20 | 0.20 | 36 | 1005.7 |
| 20260505001017 | 17 | 45 | 14.5 | 24.1 | 0.00 | 0.20 | 0.20 | 37 | 1005.8 |
| 20260505000057 | 17 | 23 | 11.3 | 25.7 | 0.00 | 0.20 | 0.20 | 40 | 1006.1 |
| 20260504235017 | 17 | 45 | 14.5 | 30.6 | 0.00 | 0.20 | 0.20 | 42 | 1006.6 |
| 20260504234037 | 16 | 45 | 17.7 | 35.4 | 0.00 | 0.20 | 0.20 | 44 | 1006.5 |
| 20260504233017 | 16 | 23 | 17.7 | 35.4 | 0.00 | 0.20 | 0.20 | 45 | 1006.8 |
| 20260504232037 | 16 | 45 | 14.5 | 27.4 | 0.00 | 0.20 | 0.20 | 45 | 1006.6 |
| 20260504231017 | 16 | 45 | 17.7 | 33.8 | 0.00 | 0.20 | 0.20 | 44 | 1006.8 |
| 20260504230017 | 16 | 113 | 4.8 | 11.3 | 0.03 | 0.20 | 0.20 | 44 | 1006.7 |
| 20260504225017 | 16 | 45 | 8.0 | 16.1 | 0.03 | 0.20 | 0.20 | 44 | 1006.8 |
| 20260504224017 | 15 | 113 | 4.8 | 8.0 | 0.08 | 0.20 | 0.20 | 49 | 1006.6 |
| 20260504223017 | 14 | 113 | 8.0 | 17.7 | 0.18 | 0.20 | 0.20 | 52 | 1006.2 |
| 20260504222017 | 14 | 135 | 4.8 | 9.7 | 0.20 | 0.20 | 0.20 | 55 | 1006.3 |
| 20260504221037 | 15 | 135 | 12.9 | 24.1 | 0.20 | 0.20 | 0.20 | 52 | 1006.3 |
| 20260504220017 | 16 | 113 | 4.8 | 20.9 | 0.18 | 0.18 | 0.18 | 44 | 1006.3 |
| 20260504215020 | 16 | 45 | 8.0 | 17.7 | 0.18 | 0.18 | 0.18 | 55 | 1006.5 |
| 20260504214017 | 16 | 135 | 12.9 | 43.5 | 0.13 | 0.13 | 0.13 | 43 | 1006.9 |
| 20260504213017 | 18 | 135 | 3.2 | 8.0 | 0.03 | 0.03 | 0.03 | 38 | 1007.2 |
| 20260504212017 | 20 | 248 | 1.6 | 4.8 | 0.00 | 0.00 | 0.00 | 37 | 1007.5 |
| 20260504211017 | 20 | 270 | 1.6 | 6.4 | 0.00 | 0.00 | 0.00 | 28 | 1007.4 |
| 20260504210017 | 20 | 225 | 1.6 | 4.8 | 0.00 | 0.00 | 0.00 | 29 | 1007.4 |
| 20260504205017 | 20 | 248 | 3.2 | 4.8 | 0.00 | 0.00 | 0.00 | 28 | 1007.5 |
| 20260504204058 | 20 | 293 | 3.2 | 6.4 | 0.00 | 0.00 | 0.00 | 28 | 1007.5 |
| 20260504203016 | 20 | 315 | 4.8 | 11.3 | 0.00 | 0.00 | 0.00 | 27 | 1007.6 |
| 20260504202017 | 21 | 338 | 4.8 | 12.9 | 0.00 | 0.00 | 0.00 | 28 | 1008.0 |
| 20260504201037 | 21 | 135 | 1.6 | 6.4 | 0.00 | 0.00 | 0.00 | 24 | 1008.0 |
| 20260504200017 | 21 | 248 | 8.0 | 16.1 | 0.00 | 0.00 | 0.00 | 24 | 1008.1 |
| 20260504195017 | 22 | 225 | 6.4 | 17.7 | 0.00 | 0.00 | 0.00 | 24 | 1008.8 |
| 20260504194016 | 22 | 315 | 6.4 | 12.9 | 0.00 | 0.00 | 0.00 | 25 | 1008.9 |
| 20260504193017 | 21 | 270 | 6.4 | 16.1 | 0.00 | 0.00 | 0.00 | 24 | 1008.6 |
| 20260504192016 | 21 | 23 | 4.8 | 11.3 | 0.00 | 0.00 | 0.00 | 24 | 1008.7 |
| 20260504191037 | 21 | 45 | 6.4 | 12.9 | 0.00 | 0.00 | 0.00 | 25 | 1008.9 |
| 20260504190016 | 21 | 270 | 4.8 | 14.5 | 0.00 | 0.00 | 0.00 | 26 | 1009.0 |
| 20260504185158 | 21 | 248 | 4.8 | 14.5 | 0.00 | 0.00 | 0.00 | 25 | 1009.1 |
| 20260504184017 | 21 | 270 | 4.8 | 12.9 | 0.00 | 0.00 | 0.00 | 25 | 1009.2 |
| 20260504183017 | 21 | 270 | 4.8 | 11.3 | 0.00 | 0.00 | 0.00 | 26 | 1009.4 |
| 20260504182017 | 20 | 248 | 6.4 | 11.3 | 0.00 | 0.00 | 0.00 | 27 | 1009.2 |
| 20260504181017 | 21 | 248 | 9.7 | 16.1 | 0.00 | 0.00 | 0.00 | 28 | 1009.3 |
| 20260504180017 | 21 | 270 | 4.8 | 11.3 | 0.00 | 0.00 | 0.00 | 28 | 1009.8 |
| 20260504175016 | 20 | 0 | 4.8 | 8.0 | 0.00 | 0.00 | 0.00 | 28 | 1009.5 |
| 20260504174016 | 20 | 225 | 3.2 | 8.0 | 0.00 | 0.00 | 0.00 | 29 | 1009.7 |
| 20260504173037 | 20 | 203 | 6.4 | 12.9 | 0.00 | 0.00 | 0.00 | 31 | 1009.9 |
| 20260504172016 | 20 | 270 | 4.8 | 11.3 | 0.00 | 0.00 | 0.00 | 31 | 1010.0 |
| 20260504171017 | 20 | 225 | 3.2 | 6.4 | 0.00 | 0.00 | 0.00 | 31 | 1010.1 |
| 20260504151017 | 17 | 135 | 3.2 | 4.8 | 0.00 | 0.00 | 0.00 | 34 | 1010.7 |
| 20260504141037 | 14 | 90 | 4.8 | 12.9 | 0.00 | 0.00 | 0.00 | 34 | 1010.2 |
| 20260504081016 | 15 | 135 | 8.0 | 19.3 | 0.00 | 0.00 | 0.00 | 25 | 1010.6 |
| 20260504050017 | 17 | 68 | 20.9 | 29.0 | 0.00 | 0.00 | 0.00 | 22 | 1010.8 |
| 20260504045017 | 16 | 113 | 12.9 | 27.4 | 0.00 | 0.00 | 0.00 | 24 | 1010.3 |
| 20260504044037 | 17 | 90 | 16.1 | 27.4 | 0.00 | 0.00 | 0.00 | 23 | 1010.7 |
| 20260504043017 | 16 | 113 | 16.1 | 27.4 | 0.00 | 0.00 | 0.00 | 23 | 1010.2 |
| 20260504042018 | 16 | 90 | 14.5 | 27.4 | 0.00 | 0.00 | 0.00 | 25 | 1010.0 |
| 20260504041017 | 16 | 113 | 16.1 | 25.7 | 0.00 | 0.00 | 0.00 | 25 | 1010.3 |
| 20260504040037 | 16 | 113 | 19.3 | 29.0 | 0.00 | 0.00 | 0.00 | 26 | 1009.9 |